Location: A�t �Alizem
(31.2076°N, 8.7872°W)
Time: 08:32:39
(UTC+00:00)

THORAD AGENA D DEB - Visible Passes

Search period start: 21 June 2021 00:00
Search period end: 01 July 2021 00:00
Orbit: 947 x 967 km, 99.9° (Epoch: 20 June)

Date Brightness Start Highest point End Pass type
(mag) Time Alt. Az. Time Alt. Az. Time Alt. Az.
21 Jun ? 22:15:20 10° NE 22:17:32 17° ENE 22:17:32 17° ENE visible
21 Jun ? 23:56:44 10° N 00:01:47 46° NW 00:01:47 46° NW visible
22 Jun ? 22:33:50 10° NE 22:37:08 25° ENE 22:37:08 25° ENE visible
23 Jun ? 00:16:25 10° N 00:21:23 32° WNW 00:21:23 32° WNW visible
23 Jun ? 22:52:43 10° NNE 22:56:44 36° ENE 22:56:44 36° ENE visible
24 Jun ? 00:36:20 10° NNW 00:40:47 22° WNW 00:40:59 22° WNW visible
24 Jun ? 23:11:50 10° NNE 23:16:20 50° NE 23:16:20 50° NE visible
25 Jun ? 00:56:41 10° NNW 00:59:52 15° WNW 01:00:35 15° WNW visible
25 Jun ? 23:31:06 10° NNE 23:35:55 59° N 23:35:55 59° N visible
26 Jun ? 22:09:41 10° ENE 22:11:15 14° ENE 22:11:15 14° ENE visible
26 Jun ? 23:50:32 10° N 23:55:30 51° NW 23:55:30 51° NW visible
27 Jun ? 22:27:59 10° NE 22:30:51 21° ENE 22:30:51 21° ENE visible
28 Jun ? 00:10:08 10° N 00:15:06 37° WNW 00:15:06 37° WNW visible
28 Jun ? 22:46:45 10° NNE 22:50:25 31° ENE 22:50:25 31° ENE visible
29 Jun ? 00:29:57 10° NNW 00:34:41 26° WNW 00:34:41 26° WNW visible
29 Jun ? 23:05:46 10° NNE 23:10:00 43° NE 23:10:00 43° NE visible
30 Jun ? 00:50:05 10° NNW 00:53:50 17° WNW 00:54:16 17° WNW visible
30 Jun ? 23:24:58 10° NNE 23:29:35 56° NNE 23:29:35 56° NNE visible
